Regional Weather Roundup
Issued by NWS Portland, ME

Current Version | Previous Version | Text Only | Print | Product List | Glossary Off
Versions: 1 2 3 4 5 6 7 8 9 10 11 12 13 14 15 16 17 18 19 20 21 22 23 24 25 26 27 28 29 30 31 32 33 34 35 36 37 38 39 40 41 42 43 44 45 46 47 48 49 50
000 ASUS41 KGYX 231410 RWRGYX WEATHER ROUNDUP FOR MAINE AND NEW HAMPSHIRE NATIONAL WEATHER SERVICE GRAY ME 1000 AM EDT TUE OCT 23 2018 MEZ002-005-006-010-012-015-018-020-021-024-026-027-029-231500- MAINE CITY SKY/WX TMP DP RH WIND PRES REMARKS PORTLAND NOT AVBL WISCASSET NOT AVBL FRYEBURG NOT AVBL AUGUSTA NOT AVBL BANGOR NOT AVBL GREENVILLE NOT AVBL MILLINOCKET NOT AVBL HOULTON NOT AVBL PRESQUE ISLE NOT AVBL FRENCHVILLE NOT AVBL CARIBOU NOT AVBL $$ NHZ002-005-008-009-011-012-014-231500- NEW HAMPSHIRE CITY SKY/WX TMP DP RH WIND PRES REMARKS ROCHESTER NOT AVBL MANCHESTER NOT AVBL CONCORD NOT AVBL BERLIN NOT AVBL WHITEFIELD NOT AVBL JAFFREY NOT AVBL LEBANON NOT AVBL MT WASHINGTON NOT AVBL $$ VTZ005-007-008-231500- VERMONT CITY SKY/WX TMP DP RH WIND PRES REMARKS $$ MAZ007-012-024-CTZ003-RIZ002-NYZ038-NYZ072-231500- SOUTHERN NEW ENGLAND AND NY CITY SKY/WX TMP DP RH WIND PRES REMARKS $$ ANZ081-ANZ082-ANZ150-NHZ014-MEZ023>029-231500- COASTAL MARINE OBSERVATIONS STATION/POSITION TIME TEMP WIND PRES WAVE AIR SEA DIR/SP/G HT/PER (UTC) (F) (DEG/KT/KT) (MB) (FT/S) $$ .............KEY.............. WCI - WIND CHILL TC - TEMPERATURE IN CELSIUS VSB - VISIBILITY IN MILES HX - HEAT INDEX FAIR- INDICATES FEW OR NO CLOUDS BELOW 12,000 FT, WITH NO SIGNIFICANT WEATHER AND/OR OBSTRUCTIONS TO VISIBILITY.

USA.gov is the U.S. government's official web portal to all federal, state and local government web resources and services.